Location: Gastines
(47.9518°N, 1.1035°W)
Time: 06:09:44
(UTC+00:00)

Daily predictions for brighter satellites

Satellite Brightness Start Highest point End
(mag) Time Altitude Azimuth Time Altitude Azimuth Time Altitude Azimuth
Tsikada Rocket 4.2 18:05:33 10° S 18:11:59 86° W 18:18:26 10° N
ARGOS Delta rocket 4.5 18:10:41 10° NNE 18:15:45 41° E 18:20:32 10° SSE
Timation 2 Rocket 4.4 18:11:10 10° NNW 18:17:26 45° NE 18:23:23 10° ESE
SKYMED 3 4.4 18:14:00 10° NNE 18:18:06 64° ESE 18:22:11 10° S
SAR-Lupe-3 4.5 18:14:40 10° SSE 18:18:12 70° ENE 18:21:46 10° N
BREEZE-M DEB (TANK) 4.2 18:16:23 10° SSW 18:20:35 49° SE 18:35:35 10° ENE
Okean O Rocket 2.1 18:18:10 10° SE 18:22:12 39° ENE 18:26:17 10° N
Cosmos 2219 3.6 18:18:47 10° NNW 18:24:32 70° WSW 18:30:14 10° SSE
Cosmos 1242 Rocket 2.7 18:24:03 10° S 18:27:29 48° E 18:30:56 10° NNE
Spot 1 4.0 18:25:00 10° NNE 18:29:14 61° ESE 18:33:18 10° S
SL-14 R/B 3.7 18:26:58 10° N 18:30:44 42° ENE 18:34:32 10° SSE
Cosmos 2263 Rocket 2.5 18:26:23 10° NNW 18:31:55 49° NE 18:37:25 10° SE
Cosmos 2360 4.3 18:28:21 10° SSW 18:34:05 88° WNW 18:39:52 10° NNE
Cosmos 1805 3.4 18:30:35 10° S 18:34:19 49° E 18:38:05 10° NNE
Cosmos 1674 Rocket 3.9 18:31:01 10° N 18:35:13 42° ENE 18:39:25 10° SSE
YAOGAN 1 2.6 18:31:43 10° SSE 18:35:58 62° ENE 18:40:15 10° N
Cosmos 1726 2.8 18:34:46 10° SSE 18:38:02 32° E 18:41:19 10° NNE
COBE Rocket 3.8 18:33:22 10° SSE 18:38:15 73° ENE 18:43:02 10° N
SKYMED 2 4.0 18:33:57 10° N 18:38:18 67° WNW 18:42:35 10° SSW
OBJECT-B 2.0 18:38:57 15° E 18:39:25 16° ENE 18:41:06 10° NNE
DMSP B5D2-2 4.5 18:36:54 10° N 18:42:11 71° WNW 18:47:25 10° SSW
Cosmos 676 Rocket 4.4 18:37:09 10° SSW 18:42:18 66° WNW 18:47:28 10° NNE
Cosmos 2082 3.8 18:37:41 10° NNW 18:43:27 88° WSW 18:49:11 10° SSE
Cosmos 1674 3.9 18:40:14 10° NNW 18:43:50 45° W 18:47:23 10° SSW
USA 267 4.1 18:40:05 10° SSE 18:46:22 49° SW 18:52:42 10° WNW
Cosmos 1766 3.8 18:44:45 10° SSE 18:48:18 34° E 18:51:54 10° NNE
Cosmos 1697 Rocket 3.1 18:46:25 10° SW 18:52:00 66° WNW 18:57:37 10° NNE
Cosmos 2279 Rocket 4.2 18:50:28 10° NNW 18:56:43 76° W 19:02:58 10° S
Cosmos 2221 Rocket 3.7 18:53:13 10° N 18:57:45 86° W 19:02:18 10° S
Cosmos 1975 Rocket 4.4 18:56:38 10° NNE 19:00:00 21° ENE 19:00:50 20° E
ASTEX 1 3.9 18:55:40 10° N 19:00:36 64° W 19:05:32 10° SSW
IGS 5A 4.2 18:59:48 19° ESE 19:02:04 33° ENE 19:05:48 10° N
Cosmos 1378 Rocket 3.5 19:00:04 10° N 19:04:29 82° E 19:08:50 10° S
Resurs 01 Rocket 3.3 19:05:25 16° ENE 19:05:43 16° ENE 19:08:28 10° NNE
Cosmos 1733 3.8 19:04:44 10° SSW 19:08:26 59° W 19:12:10 10° N
Cosmos 968 Rocket 4.1 19:04:45 10° SSE 19:09:21 31° E 19:13:57 10° NE
Cosmos 1470 3.8 19:15:56 26° ENE 19:15:56 26° ENE 19:18:31 10° NNE
Cosmos 1733 Rocket 3.8 19:11:19 10° SSW 19:15:40 57° WNW 19:20:05 10° N
Meteor 2-14 Rocket 4.4 19:11:27 10° S 19:17:32 89° E 19:23:38 10° N
ISS -3.5 19:18:26 10° WNW 19:21:46 63° SSW 19:22:45 40° SE
Cosmos 2084 3.9 19:18:05 10° WSW 19:21:49 51° NW 19:25:34 10° NE
CZ-4B R/B 4.2 19:17:49 10° S 19:22:58 47° W 19:28:15 10° NNW
Cosmos 2322 Rocket 4.1 19:19:11 10° SSE 19:27:51 12° NE 19:28:18 10° NE
Cosmos 841 Rocket 4.2 19:20:01 10° NNW 19:25:03 54° WSW 19:30:03 10° S
CSL-04 Rocket 3.6 19:21:40 17° SSE 19:25:46 63° ENE 19:31:07 10° N
Okean-O 2.7 19:24:10 28° SE 19:26:19 55° ENE 19:30:40 10° N
Cosmos 1850 Rocket 4.3 19:22:07 10° SSW 19:27:18 69° WNW 19:32:35 10° NNE
Resurs 1-3 3.9 19:26:17 35° ESE 19:27:36 45° ENE 19:31:48 10° N
CZ-4 R/B 2.2 19:23:34 10° S 19:27:39 53° W 19:31:46 10° NNW
Feng Yun 1-1 Rocket 4.5 19:22:53 10° S 19:28:22 69° WSW 19:33:48 10° NNW
Gbstr 26 Del rocket 4.5 19:20:52 10° SW 19:28:27 70° SSE 19:34:42 18° ENE
SJ-6B 2.5 19:30:23 37° SSE 19:31:42 71° ENE 19:35:29 10° N
Cosmos 1980 Rocket 2.7 19:26:40 10° SW 19:32:15 63° WNW 19:37:52 10° NNE
Cosmos 1570 Rocket 4.0 19:27:05 10° NNW 19:32:20 65° ENE 19:34:49 31° SE
Meteor 1-12 Rocket 4.3 19:28:31 10° S 19:34:31 83° E 19:40:34 10° NNE
Meteor 2-21 Rocket 4.3 19:28:43 10° S 19:34:46 85° E 19:40:51 10° N
JB-3 4.4 19:34:41 10° NNE 19:38:36 51° E 19:38:36 51° E
USA 186 1.9 19:40:04 52° S 19:40:46 78° WSW 19:44:07 10° NNW
deb Chang Zheng 4 3.8 19:41:18 43° ENE 19:41:18 43° ENE 19:45:06 10° N
Cosmos 1428 Rocket 4.4 19:39:02 10° S 19:45:08 67° E 19:51:19 10° NNE
Cosmos 489 Rocket 4.4 19:38:54 10° SSW 19:45:16 89° ESE 19:51:39 10° NNE
Cosmos 2195 Rocket 4.4 19:39:08 10° S 19:45:17 70° E 19:51:33 10° NNE
Cosmos 2278 3.7 19:41:51 10° SSW 19:47:33 82° WNW 19:53:17 10° NNE
Meteor 1-24 Rocket 3.4 19:43:47 10° N 19:49:07 76° ENE 19:51:25 35° SSE
Cosmos 1437 Rocket 2.5 19:45:26 10° S 19:49:11 87° W 19:52:57 10° N
SL-16 R/B 2.2 19:45:20 10° S 19:50:50 55° ESE 19:56:22 10° NE
Meteor 2-16 Rocket 4.4 19:45:43 10° S 19:51:50 85° W 19:58:02 10° N
USA 215 4.1 19:47:18 14° NE 19:52:34 44° N 19:58:40 10° W
SL-4 R/B 2.2 19:48:10 10° WNW 19:52:42 83° SSW 19:53:27 62° SE
Cosmos 2208 Rocket 3.9 19:50:20 10° NNW 19:55:44 80° ENE 19:57:21 47° SSE
Cosmos 1844 Rocket 2.9 19:52:58 10° NNW 19:58:31 51° NE 19:59:16 47° E
Okean O Rocket 3.8 19:55:07 10° SSW 19:58:40 24° W 20:02:14 10° NW
Cosmos 1908 Rocket 4.2 19:55:45 10° SSW 20:00:00 54° WNW 20:04:16 10° N
Meteor 1-22 Rocket 4.0 19:55:07 10° S 20:00:29 84° E 20:06:06 10° NNE
Cosmos 2285 Rocket 4.3 19:55:04 10° NNW 20:01:20 65° WSW 20:05:47 20° S
USA 81 3.9 19:56:40 10° N 20:01:59 83° E 20:03:45 43° SSE
Cosmos 2278 Rocket 4.2 19:59:31 10° N 20:02:14 13° NNE 20:03:03 13° NE
Landsat 5 4.0 19:57:51 10° N 20:02:19 65° WNW 20:06:45 10° SSW
Cosmos 2026 Rocket 3.8 19:56:43 10° S 20:02:46 79° E 20:08:50 10° N
Cosmos 1782 Rocket 3.5 20:06:54 63° SSW 20:07:34 83° W 20:11:57 10° N
Cosmos 1553 Rocket 4.0 20:02:22 10° N 20:08:39 60° ENE 20:09:43 53° ESE
OBJECT-B 3.2 20:09:48 18° W 20:09:48 18° W 20:11:16 10° NW
MOS 1 4.2 20:08:42 58° ESE 20:09:21 62° ENE 20:14:57 10° N
Cosmos 2292 Rocket 4.5 20:04:38 10° SSW 20:10:14 57° W 20:14:29 10° N
H-2A R/B 3.1 20:15:56 47° N 20:15:56 47° N 20:18:45 10° NNW
Cosmos 2263 Rocket 3.8 20:10:41 10° NW 20:15:37 31° WSW 20:20:24 11° SSW
USA 281 4.1 20:16:22 31° ENE 20:16:57 32° NE 20:22:38 10° NNW
Cosmos 1844 3.7 20:14:38 10° NNW 20:20:06 61° NE 20:20:06 61° NE
Meteor 2-5 Rocket 4.3 20:15:19 10° NNW 20:20:43 54° W 20:23:46 25° SSW
MetOp-A 4.3 20:21:57 43° NNW 20:21:57 43° NNW 20:24:40 10° NNW
Cosmos 1025 Rocket 3.6 20:24:20 10° NNW 20:28:11 56° WNW 20:28:11 56° WNW
SPOT 1/Viking Rocket 3.5 20:32:06 79° NNW 20:32:06 79° NNW 20:36:57 10° NNW
Cosmos 1975 Rocket 4.0 20:33:52 10° NNW 20:37:59 44° W 20:37:59 44° W
Resurs 01 Rocket 2.6 20:42:59 44° NW 20:42:59 44° NW 20:46:09 10° NNW
Ariane Rocket 4.0 21:05:27 43° NNW 21:05:27 43° NNW 21:08:54 10° NNW
Terra 4.0 21:07:10 19° N 21:07:10 19° N 21:08:36 10° N
Cosmos 2322 Rocket 3.3 21:01:44 10° SW 21:09:30 37° N 21:13:02 10° NNE
ATLAS 2AS CENTAUR R/B 4.2 21:01:22 10° NW 21:07:23 26° NNE 21:09:00 24° NE
S3M 4.4 21:11:23 10° NNW 21:16:36 60° NW 21:16:36 60° NW
NOSS 3-4 (A) 4.2 21:12:33 10° NW 21:18:30 55° NNE 21:18:30 55° NNE
NOSS 3-4 (C) 4.2 21:12:41 10° NW 21:18:36 55° NNE 21:18:36 55° NNE
USA 215 4.0 21:34:39 43° NNE 21:34:49 43° N 21:40:55 10° WNW
SL-16 R/B 3.9 21:30:17 10° WSW 21:35:15 30° NW 21:40:15 10° NNE
Cosmos 1844 Rocket 4.4 21:37:18 10° NW 21:40:57 27° W 21:40:57 27° W
Cosmos 2278 Rocket 4.0 21:42:16 10° NNW 21:44:53 27° N 21:44:53 27° N
Cosmos 1943 Rocket 4.4 21:53:09 10° N 21:54:57 17° N 21:54:57 17° N
USA 281 4.1 22:03:15 43° NW 22:03:15 43° NW 22:07:37 10° NNW
ATLAS 2AS CENTAUR R/B 4.2 22:52:45 10° NW 22:56:24 31° NNW 22:56:24 31° NNW
